This is the latest recevied weather packets stored in our database for station/object OK2ZAW-21. If no packets are shown the sender has not sent any weather packets the latest 10 day(s).
| Time | Temp. | Humidity | Pressure | Rain* | Wind** | Luminosity | Snow |
|---|---|---|---|---|---|---|---|
| 1788146782 | 17.78° C | 97% | 1018.9 hPa | - | - | 418 W/m² | - |
| 1788146471 | 17.22° C | 10% | - | - | - | - | - |
| 1788146160 | 17.78° C | 94% | 1019 hPa | - | - | 418 W/m² | - |
| 1788145849 | 18.89° C | 84% | 1019.1 hPa | - | - | 418 W/m² | - |
| 1788145538 | 20° C | 74% | 1019 hPa | - | - | 418 W/m² | - |
| 1788145227 | 20° C | 71% | 1019 hPa | - | - | 418 W/m² | - |
| 1788144916 | 20° C | 71% | 1018.9 hPa | - | - | 418 W/m² | - |
| 1788144605 | 20° C | 71% | 1018.8 hPa | - | - | 418 W/m² | - |
| 1788144294 | 20° C | 70% | 1018.7 hPa | - | - | 418 W/m² | - |
| 1788143983 | 20° C | 70% | 1018.8 hPa | - | - | 418 W/m² | - |
| 1788143672 | 20° C | 70% | 1018.8 hPa | - | - | 418 W/m² | - |
| 1788143361 | 20° C | 70% | 1018.8 hPa | - | - | 418 W/m² | - |
| 1788143049 | 19.44° C | 70% | 1018.1 hPa | - | - | 418 W/m² | - |
| 1788142744 | 20° C | 71% | 1018.8 hPa | - | - | 418 W/m² | - |
| 1788142427 | 20° C | 71% | 1018.7 hPa | - | - | 418 W/m² | - |
| 1788142116 | 20° C | 70% | 1018.9 hPa | - | - | 418 W/m² | - |
| 1788141805 | 20° C | 70% | 1019 hPa | - | - | 418 W/m² | - |
| 1788141494 | 20° C | 70% | 1019 hPa | - | - | 418 W/m² | - |
| 1788141183 | 20.56° C | 68% | 1019.1 hPa | - | - | 418 W/m² | - |
| 1788140872 | 20° C | 69% | 1019 hPa | - | - | 418 W/m² | - |
| 1788140561 | 20° C | 69% | 1019.1 hPa | - | - | 418 W/m² | - |
| 1788140250 | 20° C | 67% | 1019 hPa | - | - | 418 W/m² | - |
| 1788139938 | 20.56° C | 67% | 1018.9 hPa | - | - | 418 W/m² | - |
| 1788139627 | 20.56° C | 67% | 1019.1 hPa | - | - | 418 W/m² | - |
| 1788139316 | 20.56° C | 67% | 1019.1 hPa | - | - | 418 W/m² | - |
* Rain since midnight (hover to see other rain measurements)
** Current wind speed in m/s (hover to see current wind gust speed)